Flag for Germany Weather past 2 weeks in Herzogenrath, North Rhine-Westphalia, Germany

Now
37 °F

Clear.


Feels Like: 35 °F
Forecast: 36 / 54 °F
Wind: 3 mph from South

Location: Geilenkirchen Airport

Current Time: Mar 6, 2015 at 1:47:30 AM

Latest Report: Mar 6, 2015 at 12:50 AM


Visibility: 10 mi

Pressure: 30.66 "Hg

Humidity: 87%

Dew point: 34 °F

Location of HerzogenrathLocation

Historic Weather in Herzogenrath — Graph

°F

Herzogenrath temperature yesterday

Maximum temperature yesterday: 48 °F (at 2:50 PM)
Minimum temperature yesterday: 34 °F (at 10:50 PM)
Average temperature yesterday: 41 °F

Past Weeks' High & Low Weather Summary

 TemperatureHumidityPressure
High50 °F (Feb 26, 12:50 PM)100% (Feb 19, 1:50 AM)30.69 "Hg (Feb 19, 1:50 AM)
Low28 °F (Feb 19, 1:50 AM)46% (Mar 2, 1:50 PM)29.39 "Hg (Feb 23, 4:50 AM)
Average41 °F80%29.99 "Hg
* Reported Feb 19 12:50 AM — Mar 6 12:50 AM, Herzogenrath, Weather by CustomWeather, © 2015

Note: Actual official high and low records may vary slightly from our data, if they occured in-between our weather recording intervals... More about our weather records

Advertising

Herzogenrath weather history for previous 24 hours

 ConditionsComfort  
Time TempWeatherWind HumidityBarometerVisibility
12:50 AM
Fri, Mar 6
37 °FClear.3 mph87%30.66 "Hg10 mi
11:50 PM
Thu, Mar 5
37 °FClear.2 mph87%30.66 "Hg10 mi
10:50 PM34 °FClear.2 mph93%30.66 "Hg10 mi
9:50 PM36 °FClear.3 mph93%30.66 "Hg10 mi
8:50 PM39 °FClear.2 mph81%30.66 "Hg10 mi
7:50 PM43 °FClear.2 mph71%30.66 "Hg10 mi
6:50 PM45 °FPassing clouds.5 mph66%30.63 "HgN/A
5:50 PM46 °FBroken clouds.6 mph62%30.63 "HgN/A
4:50 PM48 °FBroken clouds.9 mph58%30.63 "HgN/A
3:50 PM48 °FPartly sunny.12 mph58%30.63 "HgN/A
2:50 PM48 °FBroken clouds.9 mph62%30.63 "HgN/A
1:50 PM46 °FBroken clouds.9 mph66%30.66 "HgN/A
12:50 PM46 °FBroken clouds.7 mph62%30.66 "HgN/A
11:50 AM45 °FBroken clouds.7 mph76%30.69 "HgN/A
10:50 AM43 °FPartly sunny.6 mph81%30.69 "HgN/A
9:50 AM41 °FScattered clouds.7 mph93%30.69 "Hg6 mi
8:50 AM37 °FFog.7 mph100%30.66 "Hg4 mi
7:50 AM36 °FFog.7 mph100%30.66 "Hg2 mi
6:50 AM36 °FFog.6 mph100%30.63 "Hg3 mi
5:50 AM36 °FPassing clouds.6 mph100%30.63 "HgN/A
4:50 AM36 °FPassing clouds.7 mph93%30.60 "HgN/A
3:50 AM37 °FPassing clouds.7 mph93%30.60 "HgN/A
2:50 AM37 °FPassing clouds.7 mph93%30.60 "HgN/A
1:50 AM39 °FPassing clouds.10 mph87%30.57 "HgN/A
Weather by CustomWeather, © 2015

See weather overviewHow to use our weather pages